• In Portugal
  • List of Countries
  • For 7 days
  • Water Temperature
  • Satellite Maps
  • Weather Map
  • Weather Widgets
  • user-avatar
    Login

    Hourly Weather Pinsa

    Today, 13 December, Wednesday

    Time Temperature Precipitation Wind Pressure Humidity
    00:00 +25°C° 0 mm 2 mps 734 mmHg 18%
    01:00 +25°C° 0 mm 2 mps 734 mmHg 18%
    02:00 +25°C° 0 mm 2 mps 734 mmHg 18%
    03:00 +25°C° 0 mm 3 mps 734 mmHg 18%
    04:00 +25°C° 0 mm 3 mps 734 mmHg 19%
    05:00 +24°C° 0 mm 3 mps 734 mmHg 20%
    06:00 +23°C° 0 mm 4 mps 734 mmHg 21%
    07:00 +25°C° 0 mm 4 mps 734 mmHg 20%
    08:00 +27°C° 0 mm 4 mps 735 mmHg 20%
    09:00 +28°C° 0 mm 5 mps 735 mmHg 19%
    10:00 +30°C° 0 mm 5 mps 735 mmHg 18%
    11:00 +33°C° 0 mm 4 mps 735 mmHg 16%
    12:00 +35°C° 0 mm 4 mps 734 mmHg 15%
    13:00 +36°C° 0 mm 4 mps 734 mmHg 14%
    14:00 +36°C° 0 mm 3 mps 733 mmHg 14%
    15:00 +37°C° 0 mm 3 mps 733 mmHg 13%
    16:00 +35°C° 0 mm 2 mps 732 mmHg 16%
    17:00 +31°C° 0 mm 1 mps 732 mmHg 19%
    18:00 +29°C° 0 mm 1 mps 732 mmHg 22%
    19:00 +29°C° 0 mm 1 mps 733 mmHg 22%
    20:00 +29°C° 0 mm 2 mps 734 mmHg 23%
    21:00 +29°C° 0 mm 2 mps 734 mmHg 23%
    22:00 +29°C° 0 mm 3 mps 734 mmHg 26%
    23:00 +28°C° 0 mm 3 mps 734 mmHg 28%

    Tomorrow, 14 December, Thursday

    Time Temperature Precipitation Wind Pressure Humidity
    00:00 +28°C° 0 mm 3 mps 734 mmHg 30%
    01:00 +28°C° 0 mm 3 mps 734 mmHg 32%
    02:00 +27°C° 0 mm 3 mps 734 mmHg 33%
    03:00 +27°C° 0 mm 3 mps 733 mmHg 34%
    04:00 +27°C° 0 mm 4 mps 733 mmHg 37%
    05:00 +26°C° 0 mm 4 mps 733 mmHg 39%
    06:00 +26°C° 0 mm 4 mps 734 mmHg 42%
    07:00 +28°C° 0 mm 6 mps 734 mmHg 38%
    08:00 +30°C° 0 mm 7 mps 735 mmHg 34%
    09:00 +33°C° 0 mm 8 mps 735 mmHg 30%
    10:00 +35°C° 0 mm 8 mps 735 mmHg 25%
    11:00 +38°C° 0 mm 8 mps 734 mmHg 20%
    12:00 +40°C° 0 mm 7 mps 734 mmHg 15%
    13:00 +41°C° 0 mm 7 mps 733 mmHg 14%
    14:00 +41°C° 0 mm 6 mps 732 mmHg 13%
    15:00 +41°C° 0 mm 5 mps 732 mmHg 12%
    16:00 +39°C° 0 mm 5 mps 732 mmHg 13%
    17:00 +36°C° 0 mm 4 mps 732 mmHg 14%
    18:00 +34°C° 0 mm 3 mps 732 mmHg 16%
    19:00 +34°C° 0 mm 3 mps 732 mmHg 16%
    20:00 +33°C° 0 mm 3 mps 733 mmHg 16%
    21:00 +31°C° 0 mm 3 mps 733 mmHg 17%
    22:00 +31°C° 0 mm 3 mps 733 mmHg 17%
    23:00 +30°C° 0 mm 3 mps 733 mmHg 18%

    Day after tomorrow, 15 December, Friday

    Time Temperature Precipitation Wind Pressure Humidity
    00:00 +29°C° 0 mm 3 mps 733 mmHg 19%
    01:00 +29°C° 0 mm 3 mps 733 mmHg 19%
    02:00 +28°C° 0 mm 3 mps 733 mmHg 20%
    03:00 +28°C° 0 mm 3 mps 733 mmHg 20%
    04:00 +27°C° 0 mm 4 mps 733 mmHg 22%
    05:00 +26°C° 0 mm 4 mps 733 mmHg 24%
    06:00 +25°C° 0 mm 5 mps 733 mmHg 26%
    07:00 +27°C° 0 mm 5 mps 734 mmHg 24%
    08:00 +28°C° 0 mm 6 mps 734 mmHg 22%
    09:00 +29°C° 0 mm 6 mps 735 mmHg 20%
    10:00 +33°C° 0 mm 6 mps 735 mmHg 17%
    11:00 +35°C° 0 mm 5 mps 734 mmHg 15%
    12:00 +37°C° 0 mm 5 mps 734 mmHg 12%
    13:00 +37°C° 0 mm 4 mps 733 mmHg 12%
    14:00 +38°C° 0 mm 4 mps 733 mmHg 11%
    15:00 +38°C° 0 mm 3 mps 732 mmHg 10%
    16:00 +37°C° 0 mm 3 mps 732 mmHg 11%
    17:00 +35°C° 0 mm 3 mps 732 mmHg 12%
    18:00 +34°C° 0 mm 3 mps 732 mmHg 13%
    19:00 +33°C° 0 mm 3 mps 733 mmHg 14%
    20:00 +31°C° 0 mm 3 mps 733 mmHg 15%
    21:00 +30°C° 0 mm 3 mps 734 mmHg 15%
    22:00 +30°C° 0 mm 3 mps 734 mmHg 16%
    23:00 +29°C° 0 mm 4 mps 734 mmHg 17%

    16 December, Saturday

    Time Temperature Precipitation Wind Pressure Humidity
    00:00 +28°C° 0 mm 4 mps 733 mmHg 17%
    01:00 +28°C° 0 mm 4 mps 733 mmHg 18%
    02:00 +27°C° 0 mm 4 mps 733 mmHg 19%
    03:00 +26°C° 0 mm 4 mps 732 mmHg 20%
    04:00 +26°C° 0 mm 4 mps 733 mmHg 20%
    05:00 +25°C° 0 mm 4 mps 733 mmHg 21%
    06:00 +25°C° 0 mm 4 mps 733 mmHg 22%
    07:00 +27°C° 0 mm 4 mps 734 mmHg 20%
    08:00 +29°C° 0 mm 4 mps 735 mmHg 17%
    09:00 +32°C° 0 mm 5 mps 735 mmHg 15%
    10:00 +34°C° 0 mm 5 mps 735 mmHg 13%
    11:00 +36°C° 0 mm 5 mps 734 mmHg 12%
    12:00 +39°C° 0 mm 5 mps 734 mmHg 10%
    13:00 +40°C° 0 mm 5 mps 733 mmHg 10%
    14:00 +40°C° 0 mm 4 mps 733 mmHg 10%
    15:00 +41°C° 0 mm 4 mps 732 mmHg 9%
    16:00 +38°C° 0 mm 4 mps 732 mmHg 11%
    17:00 +36°C° 0 mm 3 mps 732 mmHg 12%
    18:00 +34°C° 0 mm 3 mps 732 mmHg 13%
    19:00 +33°C° 0 mm 3 mps 733 mmHg 14%
    20:00 +31°C° 0 mm 3 mps 733 mmHg 14%
    21:00 +30°C° 0 mm 3 mps 734 mmHg 15%
    22:00 +30°C° 0 mm 3 mps 734 mmHg 15%
    23:00 +29°C° 0 mm 3 mps 734 mmHg 16%

    17 December, Sunday

    Time Temperature Precipitation Wind Pressure Humidity
    00:00 +29°C° 0 mm 3 mps 733 mmHg 16%
    01:00 +28°C° 0 mm 3 mps 733 mmHg 16%
    02:00 +28°C° 0 mm 3 mps 733 mmHg 17%
    03:00 +27°C° 0 mm 3 mps 732 mmHg 17%
    04:00 +26°C° 0 mm 3 mps 732 mmHg 17%
    05:00 +26°C° 0 mm 3 mps 733 mmHg 18%
    06:00 +25°C° 0 mm 3 mps 733 mmHg 18%
    07:00 +28°C° 0 mm 3 mps 733 mmHg 16%
    08:00 +30°C° 0 mm 3 mps 734 mmHg 14%
    09:00 +33°C° 0 mm 4 mps 734 mmHg 12%
    10:00 +35°C° 0 mm 4 mps 734 mmHg 10%
    11:00 +37°C° 0 mm 4 mps 734 mmHg 9%
    12:00 +38°C° 0 mm 4 mps 733 mmHg 8%
    13:00 +40°C° 0 mm 4 mps 733 mmHg 8%
    14:00 +40°C° 0 mm 4 mps 732 mmHg 8%
    15:00 +39°C° 0 mm 3 mps 732 mmHg 7%
    16:00 +37°C° 0 mm 3 mps 732 mmHg 8%
    17:00 +35°C° 0 mm 3 mps 732 mmHg 10%
    18:00 +33°C° 0 mm 3 mps 732 mmHg 11%
    19:00 +31°C° 0 mm 3 mps 733 mmHg 11%
    20:00 +31°C° 0 mm 3 mps 733 mmHg 12%
    21:00 +30°C° 0 mm 3 mps 734 mmHg 12%
    22:00 +29°C° 0 mm 3 mps 733 mmHg 13%
    23:00 +29°C° 0 mm 3 mps 733 mmHg 13%

    18 December, Monday

    Time Temperature Precipitation Wind Pressure Humidity
    00:00 +28°C° 0 mm 3 mps 733 mmHg 13%
    01:00 +27°C° 0 mm 3 mps 733 mmHg 13%
    02:00 +27°C° 0 mm 3 mps 732 mmHg 12%
    03:00 +26°C° 0 mm 3 mps 732 mmHg 12%
    04:00 +26°C° 0 mm 3 mps 732 mmHg 11%
    05:00 +25°C° 0 mm 3 mps 732 mmHg 11%
    06:00 +25°C° 0 mm 3 mps 733 mmHg 11%
    07:00 +27°C° 0 mm 3 mps 733 mmHg 10%
    08:00 +29°C° 0 mm 3 mps 734 mmHg 9%
    09:00 +33°C° 0 mm 4 mps 734 mmHg 8%
    10:00 +35°C° 0 mm 4 mps 734 mmHg 7%
    11:00 +36°C° 0 mm 4 mps 734 mmHg 7%
    12:00 +38°C° 0 mm 4 mps 733 mmHg 6%
    13:00 +40°C° 0 mm 4 mps 732 mmHg 6%
    14:00 +39°C° 0 mm 3 mps 732 mmHg 6%
    15:00 +39°C° 0 mm 3 mps 731 mmHg 6%
    16:00 +37°C° 0 mm 3 mps 731 mmHg 7%
    17:00 +35°C° 0 mm 3 mps 731 mmHg 8%
    18:00 +33°C° 0 mm 3 mps 732 mmHg 9%
    19:00 +31°C° 0 mm 3 mps 732 mmHg 10%
    20:00 +30°C° 0 mm 3 mps 732 mmHg 10%
    21:00 +29°C° 0 mm 3 mps 733 mmHg 10%
    22:00 +28°C° 0 mm 3 mps 733 mmHg 11%
    23:00 +28°C° 0 mm 2 mps 733 mmHg 12%
    Show more